Retour au catalogue

ARIANE 5 R/B

ActifHEO
NORAD 36746·ROCKET BODY·🇫🇷 France

Lancé Jun 26, 2010 depuis Guiana Space Centre

Loading…

Prochains Passages (prochaines 24 heures)

TLE

FraisSource: Space-Track

Époque: Sep 14, 2026, 10:23 UTC

1 36746U 10032C   26257.43317055  .00003374  00000-0  96114-3 0  9993
2 36746   1.7450 315.8516 7039059  47.2814 353.4093  2.58769128143804

Suivez ARIANE 5 R/B en temps réel avec AllMySat

Download on the App Store